Date,TemperatureHighF,TemperatureAvgF,TemperatureLowF,DewpointHighF,DewpointAvgF,DewpointLowF,HumidityHigh,HumidityAvg,HumidityLow,PressureMaxIn,PressureMinIn,WindSpeedMaxMPH,WindSpeedAvgMPH,GustSpeedMaxMPH,PrecipitationSumIn
2013-1-1,36.6,32.0,28.2,33.7,30.2,26.7,96,93,87,30.44,30.33,8,0,8,0.00
2013-1-2,40.6,30.4,25.4,32.7,27.8,23.8,96,90,73,30.33,30.19,5,0,7,0.01
2013-1-3,42.4,32.5,22.4,38.9,29.1,20.7,95,88,70,30.30,30.14,8,0,8,0.00
2013-1-4,56.2,44.3,33.3,45.9,39.9,31.8,95,85,63,30.32,30.16,8,1,8,0.00
2013-1-5,42.7,37.2,32.4,41.6,36.0,31.1,97,95,94,30.20,30.15,9,0,9,0.03
2013-1-6,51.4,42.7,36.1,43.6,39.9,35.1,97,90,72,30.24,30.14,8,1,8,0.08
2013-1-7,51.5,47.3,42.8,49.1,45.6,41.3,97,94,90,30.24,30.09,10,1,10,0.41
2013-1-8,53.3,49.2,45.9,49.4,46.6,43.8,96,91,82,30.24,29.93,16,1,16,0.14
2013-1-9,49.7,41.5,34.7,45.2,39.6,33.2,95,93,82,30.00,29.77,12,1,12,0.36
2013-1-10,40.8,36.2,33.3,38.1,34.6,31.9,100,94,89,30.13,30.00,10,0,10,0.17
2013-1-11,39.7,34.2,28.6,36.8,32.4,27.3,97,93,83,30.31,30.13,8,0,8,0.04
2013-1-12,38.7,29.9,22.5,32.4,27.3,21.0,95,90,73,30.40,30.30,9,1,9,0.00
2013-1-13,32.4,29.0,24.9,28.1,26.5,23.4,95,90,81,30.49,30.40,9,0,9,0.00
2013-1-14,41.9,32.7,25.4,32.3,28.5,23.1,93,85,57,30.57,30.49,7,0,7,0.00
2013-1-15,40.4,34.1,27.5,35.7,31.6,26.1,95,91,79,30.65,30.56,9,1,9,0.00
2013-1-16,35.7,33.9,31.6,33.9,32.5,30.3,96,95,93,30.65,30.49,6,0,6,0.00
2013-1-17,34.4,32.5,31.1,33.8,31.4,30.1,100,96,95,30.49,30.32,5,0,5,0.01
2013-1-18,38.2,32.1,28.5,36.2,30.8,27.4,96,95,92,30.33,30.27,7,0,7,0.00
2013-1-19,36.4,31.2,27.7,35.1,30.1,26.5,96,96,94,30.35,30.28,5,0,5,0.01
2013-1-20,32.9,30.3,28.4,31.9,29.3,27.4,97,96,96,30.35,30.25,6,0,6,0.00
2013-1-21,36.9,30.3,25.8,34.8,29.1,24.8,97,95,91,30.28,30.16,6,1,6,0.00
2013-1-22,37.7,30.7,25.9,34.9,29.4,24.8,97,95,89,30.17,29.95,8,1,8,0.00
2013-1-23,39.9,35.5,32.1,38.9,34.3,31.0,96,95,93,30.20,29.90,12,0,12,0.33
2013-1-24,50.0,40.2,32.5,46.6,38.6,31.5,97,94,85,30.22,30.10,7,0,7,0.18
2013-1-25,51.1,47.0,39.1,50.3,46.1,37.9,97,97,95,30.16,29.98,8,0,8,0.33
2013-1-26,46.0,41.5,38.9,42.1,39.2,37.6,97,92,77,30.12,29.98,18,1,18,0.18
2013-1-27,43.3,39.0,35.6,40.5,37.4,34.3,97,94,85,30.19,30.09,10,0,10,0.44
2013-1-28,42.4,39.8,36.0,41.6,38.9,35.0,97,97,96,30.27,30.12,6,0,6,0.66
2013-1-29,45.7,43.7,42.0,44.9,42.9,41.1,97,97,96,30.52,30.27,6,0,6,0.67
2013-1-30,46.9,43.6,41.1,46.1,42.8,40.3,97,97,97,30.54,30.46,6,0,6,0.22
2013-1-31,54.0,45.4,40.7,46.6,42.9,39.9,97,91,74,30.47,30.35,7,0,7,0.04
2013-2-1,52.9,41.1,32.0,46.1,38.5,30.8,100,91,70,30.36,30.24,9,1,9,0.00
2013-2-2,52.4,38.3,28.3,45.1,35.8,27.3,97,91,73,30.34,30.26,6,0,6,0.01
2013-2-3,48.5,42.4,35.1,42.6,39.4,33.8,96,89,77,30.34,30.24,7,0,7,0.00
2013-2-4,53.9,45.6,40.2,45.3,41.5,38.3,94,86,65,30.25,29.95,7,0,7,0.00
2013-2-5,51.7,45.3,42.8,47.5,42.8,40.4,96,91,77,30.10,29.96,17,1,17,0.35
2013-2-6,53.7,46.6,42.2,44.2,41.3,38.6,95,82,59,30.14,29.87,18,2,18,0.18
2013-2-7,47.7,40.5,34.3,41.5,37.5,32.4,95,89,68,30.12,29.97,11,1,11,0.11
2013-2-8,42.2,36.6,33.6,36.7,33.7,32.1,95,89,76,30.29,30.12,9,0,9,0.00
2013-2-9,45.6,40.0,34.8,40.2,36.7,32.7,100,89,75,30.32,30.27,6,0,6,0.02
2013-2-10,44.7,41.9,39.6,39.8,38.5,36.6,95,88,79,30.34,30.30,11,1,11,0.00
2013-2-11,47.5,43.3,40.0,41.8,39.2,36.3,95,86,70,30.42,30.31,8,1,8,0.03
2013-2-12,53.9,46.9,42.8,47.9,44.3,41.6,97,91,74,30.50,30.42,7,1,7,0.09
2013-2-13,51.7,47.4,45.1,47.5,44.8,43.7,96,91,80,30.50,30.44,8,0,8,0.02
2013-2-14,57.1,47.0,37.1,48.3,42.8,35.3,97,86,64,30.56,30.46,12,1,13,0.00
2013-2-15,50.3,40.1,33.6,44.8,38.3,32.3,97,93,81,30.46,30.23,11,1,11,0.00
2013-2-16,48.9,42.2,35.0,45.4,40.1,33.4,97,92,84,30.31,30.23,13,1,13,0.04
2013-2-17,46.7,40.7,34.4,39.5,36.0,32.3,96,84,60,30.30,30.09,7,0,7,0.03
2013-2-18,48.4,39.0,31.1,37.6,33.8,29.5,95,82,56,30.09,29.76,14,1,14,0.00
2013-2-19,47.7,42.0,38.2,40.6,38.2,35.5,94,87,73,30.00,29.65,10,1,11,0.05
2013-2-20,48.5,41.3,36.0,40.2,37.4,34.4,97,87,63,30.13,30.00,8,1,12,0.33
2013-2-21,43.8,39.7,36.2,40.7,37.7,34.9,96,93,84,30.25,30.13,10,1,10,0.14
2013-2-22,45.8,41.4,36.9,42.4,39.5,34.9,95,93,80,30.24,29.97,17,1,17,0.45
2013-2-23,46.2,38.1,32.8,40.3,35.9,31.3,96,92,74,30.47,30.12,17,1,17,0.17
2013-2-24,52.7,40.7,31.9,40.1,35.7,30.6,96,84,57,30.48,30.14,11,1,11,0.01
2013-2-25,49.4,42.6,36.5,40.3,37.8,33.3,94,84,56,30.41,30.11,18,2,18,0.12
2013-2-26,51.6,41.3,30.6,39.1,34.5,29.3,97,79,51,30.41,30.25,12,1,12,0.00
2013-2-27,49.6,45.0,40.7,43.9,39.9,35.0,91,82,75,30.33,30.25,13,3,13,0.07
2013-2-28,55.7,49.4,45.2,52.6,47.4,42.8,97,93,86,30.48,30.25,16,2,16,0.29
2013-3-1,64.1,52.7,45.1,53.2,48.3,43.1,96,86,57,30.48,30.31,10,1,10,0.00
2013-3-2,54.6,48.7,43.2,49.9,45.3,40.8,95,88,83,30.32,30.18,16,1,20,0.08
2013-3-3,51.1,41.7,30.5,41.0,35.2,28.5,95,79,53,30.31,30.21,17,2,18,0.00
2013-3-4,57.3,39.8,26.5,40.4,33.1,24.8,95,79,48,30.22,29.92,11,1,11,0.00
2013-3-5,49.0,42.3,34.1,44.5,39.7,32.3,96,90,79,29.92,29.61,8,1,8,0.14
2013-3-6,46.6,42.9,39.3,42.7,40.5,36.8,97,91,82,29.99,29.53,14,1,17,0.45
2013-3-7,56.6,43.5,32.5,40.9,36.8,30.6,96,80,47,30.05,29.97,14,2,15,0.21
2013-3-8,52.2,41.2,32.5,43.3,37.8,31.2,97,88,69,30.21,30.01,9,1,9,0.01
2013-3-9,59.4,43.2,30.6,41.8,35.3,29.1,96,77,41,30.51,30.21,13,1,13,0.01
2013-3-10,58.4,46.3,32.9,46.9,39.3,30.8,94,79,49,30.51,30.40,11,2,11,0.00
2013-3-11,59.6,52.5,48.3,51.2,48.3,45.8,94,86,73,30.42,30.24,6,0,7,0.00
2013-3-12,60.4,50.4,40.0,51.1,45.9,38.1,96,85,68,30.24,30.15,10,1,11,0.00
2013-3-13,68.7,55.2,45.4,52.0,48.3,43.3,94,79,50,30.23,30.07,9,1,9,0.00
2013-3-14,64.0,52.8,46.5,52.0,47.4,42.5,93,83,54,30.22,30.05,13,1,13,0.03
2013-3-15,63.9,54.9,50.3,51.5,49.1,47.2,95,82,59,30.23,30.15,11,1,12,0.00
2013-3-16,51.4,47.5,40.3,47.9,44.3,38.3,94,89,75,30.20,30.04,17,1,18,0.47
2013-3-17,47.7,41.3,34.3,40.4,36.2,32.8,96,83,60,30.33,30.19,10,1,10,0.03
2013-3-18,55.9,43.4,33.3,38.7,35.6,31.8,95,76,45,30.30,30.12,14,2,14,0.00
2013-3-19,55.7,45.3,34.7,49.3,41.0,32.3,95,86,62,30.12,29.69,12,1,12,0.41
2013-3-20,54.5,47.5,37.9,50.5,44.6,36.1,95,90,78,30.21,29.61,29,2,29,0.72
2013-3-21,46.7,39.3,34.5,41.5,36.3,33.0,96,89,74,30.34,30.22,22,1,22,0.12
2013-3-22,47.1,39.9,34.9,37.0,34.6,30.5,100,82,54,30.39,30.33,12,1,13,0.05
2013-3-23,50.1,40.1,31.8,38.0,34.1,30.5,96,81,57,30.39,30.25,11,1,12,0.01
2013-3-24,53.2,39.9,32.2,41.5,35.3,30.1,94,85,60,30.26,30.07,10,1,12,0.00
2013-3-25,56.4,50.0,37.7,46.6,42.3,35.3,94,76,62,30.04,29.91,8,1,11,0.00
2013-3-26,53.6,49.5,42.2,47.9,45.0,39.5,94,85,74,30.01,29.96,5,0,5,0.03
2013-3-27,62.7,50.2,39.4,51.7,45.4,37.4,95,85,58,29.99,29.89,14,1,14,0.06
2013-3-28,66.2,54.5,47.4,52.2,48.5,45.8,99,82,56,30.13,29.99,11,1,11,0.02
2013-3-29,68.3,57.7,49.3,53.7,50.3,45.9,95,78,56,30.18,30.10,11,1,12,0.01
2013-3-30,73.6,58.8,44.2,56.9,50.4,41.3,94,75,52,30.15,29.93,12,1,12,0.00
2013-3-31,73.0,58.5,44.9,53.8,49.5,42.8,95,74,48,30.01,29.91,17,2,17,0.00
2013-4-1,59.6,55.7,52.9,52.6,51.2,50.1,94,85,75,30.17,30.00,8,0,9,0.00
2013-4-2,66.3,55.4,45.0,52.2,48.2,43.1,94,78,50,30.21,30.11,13,1,13,0.00
2013-4-3,67.6,54.9,42.2,55.0,48.8,40.3,95,81,61,30.16,29.89,8,1,9,0.00
2013-4-4,62.0,56.1,52.5,55.7,52.3,48.2,92,87,76,29.90,29.69,16,1,22,0.16
2013-4-5,58.4,53.5,50.7,52.2,49.3,47.7,94,86,69,29.98,29.87,21,2,24,0.46
2013-4-6,54.6,49.7,46.7,48.9,46.8,44.8,95,90,75,30.04,29.74,13,2,13,0.50
2013-4-7,52.7,47.4,42.1,48.1,43.2,40.2,94,85,71,30.00,29.68,27,3,31,0.29
2013-4-8,52.7,45.8,40.0,46.3,41.9,38.4,95,87,67,30.29,30.00,9,1,9,0.06
2013-4-9,59.8,49.9,37.6,49.2,42.5,35.5,95,77,50,30.36,30.25,7,0,7,0.00
2013-4-10,61.6,51.6,43.2,52.7,45.8,39.8,94,81,65,30.33,30.20,19,2,19,0.05
2013-4-11,56.7,48.2,41.1,42.2,39.5,36.4,91,73,51,30.35,30.16,15,2,15,0.00
2013-4-12,58.2,46.5,33.3,46.9,39.3,31.3,94,78,49,30.16,29.89,13,1,13,0.05
2013-4-13,51.4,44.7,39.8,45.0,38.4,35.5,93,79,57,30.13,29.95,20,2,20,0.11
2013-4-14,49.8,43.2,40.7,43.2,38.9,35.8,93,85,62,30.13,29.94,16,1,16,0.14
2013-4-15,52.1,43.4,39.4,42.6,39.6,37.1,98,87,59,30.18,29.95,12,1,13,0.33
2013-4-16,57.9,47.3,42.0,43.9,40.2,34.6,95,79,43,30.40,30.18,20,2,20,0.11
2013-4-17,60.3,47.3,34.3,44.2,38.1,32.1,94,73,36,30.50,30.40,12,1,12,0.00
2013-4-18,63.4,52.6,41.1,48.1,43.7,38.9,93,73,47,30.48,30.34,9,1,9,0.00
2013-4-19,58.5,52.0,48.7,53.3,49.0,46.8,95,89,79,30.34,30.22,13,1,13,0.34
2013-4-20,62.2,52.6,47.0,48.0,46.0,43.1,94,80,54,30.35,30.24,12,1,12,0.08
2013-4-21,58.7,50.9,44.6,49.9,45.5,41.8,92,83,65,30.30,30.22,10,1,10,0.01
2013-4-22,69.2,54.4,43.5,47.4,39.3,28.2,92,63,23,30.36,30.26,14,2,14,0.00
2013-4-23,68.3,52.9,35.9,39.8,33.0,27.5,77,50,23,30.34,30.10,19,3,19,0.00
2013-4-24,75.0,56.6,35.7,44.6,38.3,31.6,87,55,29,30.20,29.97,18,2,18,0.00
2013-4-25,76.6,57.7,38.5,48.8,41.9,36.1,93,61,28,30.13,30.00,12,1,12,0.00
2013-4-26,78.9,61.8,43.2,51.7,46.5,40.2,91,62,30,30.22,30.13,12,1,12,0.00
2013-4-27,76.0,60.3,42.5,51.2,41.7,33.6,88,54,23,30.24,30.17,15,2,15,0.00
2013-4-28,67.0,57.0,49.2,49.0,45.3,38.9,89,67,38,30.28,30.12,12,1,12,0.01
2013-4-29,60.7,53.6,43.5,50.0,42.4,33.2,91,67,40,30.22,30.11,18,2,18,0.07
2013-4-30,58.0,46.1,34.3,37.2,33.7,30.1,92,65,37,30.41,30.22,14,2,14,0.00
2013-5-1,69.3,50.6,30.8,45.0,38.2,28.5,92,66,40,30.49,30.39,15,2,15,0.00
2013-5-2,78.8,59.7,38.7,48.2,41.8,35.2,92,57,26,30.42,30.20,16,2,17,0.00
2013-5-3,77.5,60.5,40.5,51.7,45.3,37.8,92,61,35,30.27,30.07,16,1,17,0.00
2013-5-4,83.7,64.3,42.6,52.3,40.4,30.9,92,51,16,30.09,29.83,23,1,23,0.00
2013-5-5,87.5,68.3,43.2,46.8,42.0,37.8,88,45,19,29.83,29.61,25,2,25,0.00
2013-5-6,78.4,64.6,47.8,56.0,49.2,43.5,90,60,36,29.91,29.74,12,1,12,0.00
2013-5-7,75.5,62.1,47.2,55.0,49.8,43.4,91,66,45,30.03,29.89,13,1,15,0.00
2013-5-8,69.4,57.6,46.1,55.0,49.6,42.9,91,76,57,30.13,30.03,13,1,13,0.00
2013-5-9,80.5,62.6,47.3,59.4,52.3,45.1,94,72,40,30.18,30.05,14,1,14,0.00
2013-5-10,81.7,67.0,51.4,61.2,55.1,48.5,94,68,45,30.18,30.08,13,1,13,0.00
2013-5-11,83.8,69.7,57.0,64.0,56.7,51.4,88,66,34,30.18,29.98,11,1,11,0.00
2013-5-12,77.8,65.2,55.6,62.1,55.3,51.1,92,72,47,30.12,30.04,12,1,12,0.00
2013-5-13,69.2,60.4,52.5,56.5,52.4,46.1,93,76,50,30.20,30.05,17,2,17,0.03
2013-5-14,68.3,57.7,49.0,48.8,44.5,37.5,89,65,36,30.20,30.08,12,1,12,0.00
2013-5-15,61.6,52.6,44.8,53.0,47.0,40.4,91,82,63,30.12,30.01,7,0,7,0.10
2013-5-16,58.8,54.8,52.2,53.8,51.0,49.4,92,87,76,30.01,29.94,6,0,6,0.12
2013-5-17,62.3,55.1,49.0,51.2,48.5,44.5,95,80,55,30.10,30.00,7,1,12,0.02
2013-5-18,57.6,54.0,50.9,52.8,50.0,48.0,91,86,76,30.29,30.10,10,0,10,0.01
2013-5-19,66.0,55.8,46.5,53.4,49.3,42.6,94,81,44,30.40,30.29,14,1,14,0.17
2013-5-20,72.5,56.3,39.3,52.9,46.3,36.9,96,72,44,30.33,29.91,13,1,13,0.00
2013-5-21,54.9,47.6,42.7,49.2,44.3,40.5,92,88,70,30.04,29.83,13,1,13,0.68
2013-5-22,48.5,44.0,39.5,46.0,41.3,36.8,94,90,86,30.04,30.00,16,1,16,0.47
2013-5-23,58.5,50.2,45.3,48.0,44.1,41.0,93,80,55,30.05,30.02,13,1,13,0.28
2013-5-24,61.4,52.7,47.0,48.0,46.2,43.8,95,79,53,30.10,30.01,12,1,12,0.17
2013-5-25,69.7,58.6,48.8,51.9,47.4,41.7,92,69,40,30.08,29.92,13,1,13,0.09
2013-5-26,63.4,56.7,50.5,55.1,51.0,47.3,94,82,64,30.05,29.95,7,1,15,0.34
2013-5-27,65.3,55.3,49.4,58.5,51.8,46.6,95,88,72,29.99,29.76,18,1,18,0.51
2013-5-28,66.0,57.0,51.5,53.7,50.3,46.8,93,79,56,29.95,29.74,15,1,15,0.07
2013-5-29,63.2,55.0,50.5,54.2,50.8,47.3,94,86,65,30.08,29.68,19,2,19,0.29
2013-5-30,62.7,55.2,48.7,48.7,46.6,41.8,93,74,52,30.25,30.08,10,1,10,0.00
2013-5-31,70.3,58.9,47.7,51.9,48.6,44.4,92,70,48,30.31,30.20,12,1,13,0.00
2013-6-1,76.8,61.9,44.5,55.6,49.5,36.8,94,67,29,30.23,29.99,14,1,15,0.00
2013-6-2,72.5,61.7,54.6,54.3,51.5,49.0,87,71,46,30.06,29.99,12,2,16,0.00
2013-6-3,74.3,61.2,46.5,56.2,50.3,44.1,94,70,44,30.08,29.99,15,2,15,0.00
2013-6-4,80.2,64.3,45.4,58.3,51.7,42.9,94,67,36,30.05,29.94,12,1,13,0.00
2013-6-5,83.8,69.1,53.2,61.1,54.5,46.7,94,64,29,30.05,29.93,12,1,13,0.00
2013-6-6,83.2,69.2,55.2,62.6,56.0,51.6,90,66,35,30.02,29.94,17,1,17,0.00
2013-6-7,82.2,68.6,53.9,59.6,53.0,36.6,92,62,22,30.10,30.02,12,1,12,0.00
2013-6-8,80.0,65.7,55.3,57.0,50.6,40.3,89,63,26,30.12,30.01,13,1,13,0.00
2013-6-9,74.2,63.0,50.4,53.6,49.5,45.1,90,64,37,30.06,29.92,18,2,18,0.00
2013-6-10,71.2,59.1,48.8,50.2,46.1,41.6,85,65,35,29.98,29.87,12,1,13,0.00
2013-6-11,64.0,57.9,52.5,47.9,45.7,42.5,79,64,48,30.14,29.98,11,1,11,0.00
2013-6-12,64.1,56.7,49.5,48.7,46.8,45.0,87,70,53,30.19,30.13,11,1,11,0.00
2013-6-13,60.4,54.6,49.7,53.3,49.2,45.6,89,82,69,30.30,30.18,10,1,10,0.16
2013-6-14,72.3,59.6,47.2,55.7,50.8,45.1,96,74,52,30.30,29.96,13,1,15,0.01
2013-6-15,78.6,64.0,47.1,58.7,51.3,43.9,94,66,33,30.01,29.90,12,1,13,0.00
2013-6-16,76.0,63.1,50.3,57.1,52.0,46.6,91,69,45,30.11,30.01,12,1,12,0.00
2013-6-17,77.5,63.3,52.3,56.0,50.9,46.8,87,66,39,30.11,29.93,15,1,15,0.01
2013-6-18,69.5,59.2,55.2,54.3,51.4,44.6,92,77,44,30.02,29.92,17,1,17,0.07
2013-6-19,62.4,56.4,52.3,54.2,51.2,48.0,92,83,61,30.11,29.96,15,1,15,0.07
2013-6-20,65.6,56.9,48.4,54.9,50.9,45.7,93,81,58,30.13,30.06,14,1,14,0.04
2013-6-21,73.0,62.0,52.5,53.5,50.4,45.8,91,68,42,30.16,30.09,11,1,13,0.00
2013-6-22,81.0,66.0,47.5,57.9,51.6,44.6,94,63,36,30.09,29.84,11,1,12,0.00
2013-6-23,72.8,64.8,58.9,63.4,58.7,55.6,92,81,62,29.85,29.63,8,0,9,0.28
2013-6-24,64.5,59.9,56.1,58.7,55.1,51.6,94,85,67,29.72,29.68,11,0,12,0.08
2013-6-25,68.0,60.3,57.2,63.4,57.8,55.1,95,92,76,29.87,29.67,11,0,11,0.99
2013-6-26,71.5,63.4,58.0,60.6,58.2,56.1,96,84,62,30.03,29.85,11,1,11,0.03
2013-6-27,83.0,71.4,60.4,63.3,60.6,56.9,92,71,48,30.12,30.00,14,1,14,0.00
2013-6-28,90.3,75.1,58.8,68.9,61.8,56.0,94,66,35,30.12,29.99,13,1,13,0.00
2013-6-29,87.7,74.0,59.1,65.3,59.7,55.1,92,64,37,30.09,29.93,13,1,13,0.00
2013-6-30,92.0,76.3,58.4,66.5,61.8,55.3,93,64,38,29.95,29.81,11,1,11,0.00
2013-7-1,89.8,76.5,63.4,70.7,65.2,59.8,91,70,48,29.96,29.88,10,1,11,0.00
2013-7-2,90.5,77.0,64.1,71.7,65.5,60.5,93,70,47,30.04,29.94,12,1,13,0.00
2013-7-3,85.8,72.4,61.0,63.8,55.7,42.5,89,60,25,30.08,29.98,13,1,13,0.00
2013-7-4,78.0,66.3,53.6,54.7,51.9,48.5,85,62,38,30.11,29.96,17,2,22,0.00
2013-7-5,75.3,64.2,52.1,54.1,51.5,48.8,92,65,42,30.04,29.90,18,2,19,0.00
2013-7-6,76.3,64.1,51.0,58.0,53.5,47.0,89,70,49,29.94,29.83,16,2,17,0.00
2013-7-7,81.0,67.0,52.2,60.5,55.4,48.6,92,69,45,29.95,29.83,14,2,14,0.00
2013-7-8,82.3,67.4,53.1,60.7,55.1,49.1,90,67,41,30.05,29.95,11,1,13,0.00
2013-7-9,88.7,71.4,53.5,64.1,56.5,49.9,94,64,30,30.05,29.93,12,1,12,0.00
2013-7-10,85.3,71.0,57.0,60.6,56.0,51.4,91,62,35,30.02,29.86,13,1,13,0.00
2013-7-11,76.3,63.6,51.7,52.3,48.7,43.6,82,61,33,30.04,29.91,14,1,15,0.00
2013-7-12,77.3,62.5,46.5,54.6,48.3,42.7,91,64,30,30.06,29.96,12,1,14,0.00
2013-7-13,81.2,65.4,47.5,54.4,48.2,43.4,92,58,28,30.12,29.96,20,2,20,0.00
2013-7-14,86.8,68.4,47.8,57.5,50.7,44.4,90,58,28,30.06,29.91,14,1,14,0.00
2013-7-15,86.0,69.2,50.5,57.2,52.5,46.3,92,59,31,29.97,29.75,13,1,14,0.00
2013-7-16,84.0,70.2,56.0,60.1,55.9,51.7,89,63,41,30.00,29.74,16,1,16,0.00
2013-7-17,80.6,67.4,58.9,58.9,55.8,53.6,86,68,43,30.13,30.00,11,1,11,0.02
2013-7-18,84.5,68.1,52.6,61.7,53.5,47.4,92,64,31,30.17,30.02,14,1,14,0.00
2013-7-19,83.8,67.8,50.5,62.1,55.0,46.5,93,66,42,30.11,29.96,13,1,13,0.00
2013-7-20,83.0,67.4,54.5,61.8,56.3,50.4,90,70,42,30.04,29.89,13,1,15,0.00
2013-7-21,85.0,69.5,51.6,60.6,55.4,47.9,94,64,39,29.94,29.83,12,1,13,0.00
2013-7-22,86.0,69.8,54.3,62.4,54.3,48.5,93,62,31,29.99,29.89,12,1,13,0.00
2013-7-23,91.8,71.3,51.4,63.1,54.2,47.2,92,59,26,30.00,29.89,13,1,13,0.00
2013-7-24,92.9,74.0,55.1,59.9,53.1,44.3,89,54,20,29.99,29.91,13,1,13,0.00
2013-7-25,92.3,73.4,54.2,58.4,51.1,42.9,85,51,21,30.03,29.93,15,1,15,0.00
2013-7-26,90.3,72.8,54.9,57.9,52.1,46.6,87,53,24,30.10,30.00,18,1,18,0.00
2013-7-27,82.3,68.2,50.6,51.8,47.8,42.8,86,51,25,30.15,29.95,14,2,14,0.00
2013-7-28,79.3,64.5,47.6,54.1,50.1,44.1,90,63,34,30.04,29.91,16,2,20,0.00
2013-7-29,79.3,63.7,50.4,57.2,52.5,47.1,89,69,42,30.02,29.91,12,1,15,0.00
2013-7-30,82.0,65.7,49.2,58.4,53.8,46.6,92,68,41,30.11,30.02,11,1,11,0.00
2013-7-31,76.8,65.5,57.1,60.0,56.6,53.0,88,74,54,30.09,30.00,11,1,11,0.00
2013-8-1,63.6,60.2,57.1,58.0,56.0,54.4,93,86,77,30.12,30.05,6,0,6,0.03
2013-8-2,75.8,64.9,57.6,56.6,54.5,52.1,89,71,48,30.13,30.04,13,1,13,0.00
2013-8-3,82.7,66.4,49.6,59.9,54.4,46.3,94,68,42,30.08,29.93,12,1,13,0.00
2013-8-4,88.3,71.2,53.8,62.9,56.7,50.1,93,64,34,30.00,29.86,11,1,12,0.00
2013-8-5,90.7,73.0,55.8,63.9,57.3,52.0,92,62,30,29.97,29.85,13,1,13,0.00
2013-8-6,91.8,74.0,55.9,61.7,53.6,44.6,91,56,22,29.95,29.84,9,1,13,0.00
2013-8-7,78.7,65.5,55.2,56.6,53.2,48.8,83,66,44,30.01,29.91,14,1,14,0.00
2013-8-8,84.3,67.5,54.5,62.2,56.2,50.6,89,70,42,30.04,29.86,13,1,13,0.00
2013-8-9,84.1,70.2,63.5,65.1,61.8,58.3,93,77,44,29.91,29.79,13,1,13,0.07
2013-8-10,80.8,67.2,55.5,62.4,57.7,52.6,94,74,46,30.03,29.90,12,1,12,0.00
2013-8-11,61.3,59.2,58.2,56.6,55.3,54.4,89,87,84,30.05,30.02,2,0,2,0.00
2013-8-12,74.5,66.8,59.2,59.6,57.7,53.9,89,73,58,30.05,29.99,10,1,10,0.00
2013-8-13,85.5,68.0,52.8,61.5,55.5,49.3,92,68,38,30.08,29.90,12,1,12,0.00
2013-8-14,87.1,70.6,54.6,60.0,54.4,47.3,92,61,27,29.96,29.89,14,1,14,0.00
2013-8-15,85.0,71.3,56.9,64.9,59.4,52.8,88,68,45,29.95,29.90,12,1,13,0.00
2013-8-16,84.7,73.1,66.2,67.1,63.2,57.8,92,73,46,30.02,29.93,10,1,10,0.01
2013-8-17,84.7,70.3,54.9,60.4,56.3,51.3,92,64,39,30.07,29.97,13,1,13,0.00
2013-8-18,85.5,69.5,55.5,62.4,56.7,51.5,89,67,37,30.11,29.99,13,1,13,0.00
2013-8-19,87.3,71.0,54.3,61.9,55.5,50.8,92,62,32,30.08,29.96,13,1,13,0.00
2013-8-20,84.1,68.3,53.7,58.1,52.1,47.6,90,60,29,30.09,29.91,15,1,15,0.00
2013-8-21,84.7,67.7,50.8,59.4,53.3,46.7,88,63,36,29.97,29.82,11,1,11,0.00
2013-8-22,83.6,71.1,61.7,64.7,60.3,56.1,84,70,46,29.88,29.82,12,1,13,0.00
2013-8-23,76.7,66.4,59.3,60.3,57.4,54.8,88,74,52,29.92,29.85,12,1,12,0.00
2013-8-24,75.8,65.2,56.2,58.9,55.0,51.8,88,71,48,29.90,29.82,12,1,12,0.00
2013-8-25,68.7,61.3,55.6,62.2,57.2,51.3,93,86,76,29.93,29.86,6,0,7,0.02
2013-8-26,79.8,66.6,57.8,60.7,55.6,51.1,95,71,38,29.95,29.88,18,2,19,0.17
2013-8-27,84.7,68.2,52.4,61.7,55.8,49.3,92,67,37,29.96,29.75,12,1,12,0.00
2013-8-28,83.3,71.2,59.3,61.8,59.1,55.4,89,67,45,29.87,29.81,12,1,12,0.00
2013-8-29,77.7,69.3,63.9,68.3,63.3,60.0,91,82,61,30.07,29.82,12,1,12,0.15
2013-8-30,82.0,70.7,63.4,65.1,61.5,57.6,94,75,47,30.12,29.99,11,1,11,0.06
2013-8-31,87.7,71.0,55.3,63.3,58.7,52.4,94,68,41,30.00,29.79,12,1,12,0.00
2013-9-1,84.7,70.1,56.1,60.2,56.0,52.8,92,64,35,29.88,29.75,11,1,11,0.00
2013-9-2,79.4,68.6,58.9,60.5,55.9,53.5,85,65,44,29.92,29.85,15,1,15,0.00
2013-9-3,81.3,69.2,59.3,56.8,54.7,51.1,85,62,38,29.98,29.91,11,1,11,0.00
2013-9-4,71.7,65.7,57.5,59.5,56.5,53.3,88,73,59,30.02,29.98,7,0,7,0.12
2013-9-5,66.7,60.8,57.5,61.5,58.1,56.1,95,91,80,30.07,29.96,14,0,15,1.79
2013-9-6,70.2,62.3,56.2,61.7,57.9,53.3,96,86,61,30.16,30.07,10,0,10,0.60
2013-9-7,76.9,62.0,48.6,62.2,55.6,46.4,95,81,59,30.09,29.93,11,1,11,0.00
2013-9-8,82.6,65.9,53.1,65.1,58.1,51.1,95,78,50,30.04,29.93,15,1,15,0.00
2013-9-9,84.2,68.6,53.9,64.6,58.7,51.3,94,73,45,30.00,29.86,13,1,14,0.00
2013-9-10,87.8,70.1,54.7,69.4,61.4,52.3,94,76,48,29.89,29.73,9,1,9,0.00
2013-9-11,89.5,72.3,55.5,66.1,60.0,52.3,93,68,40,29.93,29.77,11,1,11,0.00
2013-9-12,80.9,65.9,56.7,65.4,59.4,53.5,92,81,57,29.98,29.88,9,1,9,0.00
2013-9-13,78.5,65.7,58.0,64.9,60.4,55.6,95,84,63,29.95,29.80,10,1,10,0.01
2013-9-14,75.8,65.1,59.6,64.8,60.5,56.8,92,86,69,29.82,29.69,9,0,9,0.00
2013-9-15,67.9,62.7,59.8,60.2,58.5,56.5,94,87,74,29.90,29.71,13,0,13,0.04
2013-9-16,72.1,63.4,57.5,58.0,55.7,52.9,90,77,52,29.98,29.87,10,0,10,0.00
2013-9-17,65.5,59.2,55.3,56.6,53.9,49.9,92,83,58,30.02,29.83,13,1,13,0.04
2013-9-18,73.3,59.8,51.4,56.4,51.1,46.8,95,76,44,30.09,29.98,9,1,9,0.00
2013-9-19,79.2,60.6,45.2,57.0,50.4,42.4,93,72,42,29.98,29.78,8,1,8,0.00
2013-9-20,74.0,58.7,47.2,56.7,51.8,44.7,93,79,49,29.78,29.66,18,1,18,0.02
2013-9-21,65.8,59.2,55.8,57.6,54.7,52.4,95,86,64,29.81,29.67,10,0,10,0.32
2013-9-22,61.4,56.2,52.4,55.6,52.8,50.3,94,89,71,29.91,29.72,17,1,18,0.27
2013-9-23,61.9,57.1,53.3,56.4,53.5,51.6,95,88,73,30.01,29.91,11,1,11,0.23
2013-9-24,58.9,54.1,50.5,54.5,51.5,48.6,95,91,75,29.98,29.87,13,0,13,0.74
2013-9-25,55.2,51.5,48.5,51.5,49.0,46.9,95,91,80,30.04,29.87,7,0,8,0.10
2013-9-26,65.3,54.1,45.4,51.7,48.2,43.2,95,82,51,30.18,30.04,12,1,12,0.00
2013-9-27,59.1,51.0,43.0,52.2,48.1,41.1,95,90,68,30.19,29.98,10,1,10,0.58
2013-9-28,67.7,58.5,52.0,57.6,54.7,50.1,97,88,65,29.98,29.57,31,2,31,1.24
2013-9-29,57.7,54.2,52.0,55.7,51.3,49.4,94,90,84,29.76,29.50,26,2,26,1.26
2013-9-30,58.6,52.8,49.2,52.8,48.9,46.8,94,87,77,30.04,29.68,21,2,21,0.26
2013-10-1,59.5,51.5,46.4,51.8,48.2,43.3,96,89,64,30.20,30.01,12,1,12,0.19
2013-10-2,55.5,47.2,37.7,48.9,43.2,35.9,95,87,68,30.20,30.09,9,0,10,0.17
2013-10-3,58.8,48.5,41.0,49.0,44.6,39.1,96,87,66,30.41,30.19,11,0,11,0.07
2013-10-4,63.2,48.1,34.8,52.5,43.2,33.4,96,84,65,30.43,30.32,11,1,11,0.00
2013-10-5,69.5,51.8,37.4,53.1,45.3,35.8,95,81,54,30.33,30.14,9,0,9,0.00
2013-10-6,78.0,57.1,40.9,52.2,44.8,36.8,95,70,24,30.14,29.96,18,1,18,0.00
2013-10-7,60.4,52.3,45.7,53.4,48.2,42.8,95,86,64,30.17,30.00,11,1,13,0.17
2013-10-8,52.9,49.6,46.5,50.9,47.8,44.4,95,93,91,30.17,29.99,9,0,9,0.22
2013-10-9,54.6,46.2,40.1,49.0,43.7,38.5,96,91,80,30.08,29.97,8,0,8,0.01
2013-10-10,63.1,50.3,39.7,50.1,45.0,37.8,96,83,53,30.09,29.96,8,0,8,0.00
2013-10-11,58.7,52.1,46.4,48.9,46.0,43.3,92,80,62,30.13,30.08,11,0,11,0.00
2013-10-12,57.9,49.9,41.7,49.0,45.3,38.7,94,84,65,30.15,30.06,7,0,7,0.00
2013-10-13,55.1,43.7,34.4,47.8,40.4,32.3,98,88,76,30.29,30.15,11,1,11,0.00
2013-10-14,63.9,46.6,33.5,51.2,41.9,32.0,95,85,60,30.34,30.25,9,1,9,0.00
2013-10-15,66.1,48.7,34.4,47.7,40.9,32.1,94,77,47,30.28,30.12,8,1,8,0.00
2013-10-16,66.2,48.8,35.7,49.8,42.1,34.1,95,80,44,30.16,30.09,11,0,11,0.00
2013-10-17,64.2,48.8,36.6,52.5,43.7,34.8,95,84,62,30.20,30.12,7,0,11,0.00
2013-10-18,67.9,49.4,35.2,52.9,43.7,33.6,100,82,56,30.16,30.07,11,0,11,0.01
2013-10-19,71.3,51.2,37.3,55.1,45.6,35.2,95,83,54,30.13,30.07,9,0,9,0.00
2013-10-20,66.5,50.5,37.4,53.9,44.9,35.3,100,82,53,30.13,30.04,8,0,9,0.00
2013-10-21,70.6,51.2,37.2,54.9,45.6,35.3,95,83,56,30.07,29.96,8,0,8,0.00
2013-10-22,72.1,52.9,38.4,56.2,46.2,36.3,95,80,46,30.04,29.94,8,0,9,0.00
2013-10-23,71.0,52.9,40.0,57.3,47.2,37.9,95,82,61,30.00,29.92,9,0,9,0.00
2013-10-24,65.9,50.6,39.8,55.0,46.2,37.9,95,85,64,30.08,29.98,7,0,7,0.00
2013-10-25,51.7,48.1,42.7,49.8,46.6,41.0,96,94,92,30.26,30.08,7,0,7,0.02
2013-10-26,51.2,48.7,46.0,47.5,46.4,44.4,95,92,86,30.27,30.16,7,0,7,0.00
2013-10-27,55.7,48.8,46.3,50.7,46.6,44.1,99,92,81,30.17,29.80,13,1,13,0.19
2013-10-28,58.9,47.1,34.4,46.4,40.4,31.8,95,79,47,29.90,29.76,11,1,12,0.00
2013-10-29,59.1,42.3,32.3,38.3,33.8,29.3,93,75,36,30.08,29.90,9,1,9,0.00
2013-10-30,61.2,46.0,32.6,45.5,38.2,30.4,95,77,45,30.19,30.08,9,1,9,0.00
2013-10-31,55.5,53.2,49.9,53.8,49.8,45.3,94,89,81,30.25,30.17,11,1,11,0.06
2013-11-1,56.4,49.0,38.9,51.7,46.4,37.3,98,91,77,30.25,29.93,11,0,11,0.01
2013-11-2,53.3,49.0,41.7,51.1,46.0,39.8,96,90,71,30.11,29.81,18,2,18,0.37
2013-11-3,49.9,44.9,40.0,44.7,42.3,38.3,96,91,76,30.20,30.10,9,0,9,0.12
2013-11-4,49.8,46.3,43.9,46.2,44.2,42.4,96,92,85,30.20,30.14,12,1,12,0.15
2013-11-5,51.8,49.4,46.7,51.0,48.2,44.9,97,96,93,30.25,30.12,9,0,9,0.67
2013-11-6,58.5,54.6,51.7,56.4,53.2,50.6,97,95,91,30.28,30.08,7,0,7,0.05
2013-11-7,56.9,50.8,41.9,54.1,48.3,40.3,96,91,76,30.17,29.93,30,1,30,0.36
2013-11-8,53.4,47.3,40.2,47.9,44.5,37.8,100,90,74,30.21,30.10,7,0,7,0.04
2013-11-9,50.3,43.5,34.9,46.0,40.8,33.3,96,90,82,30.10,30.02,6,0,6,0.00
2013-11-10,57.7,46.9,42.3,50.8,44.3,40.4,96,91,75,30.08,30.03,7,0,7,0.00
2013-11-11,50.7,46.1,43.0,48.1,44.6,41.9,97,95,90,30.14,30.01,8,1,8,0.00
2013-11-12,57.7,52.2,44.9,55.3,50.6,43.8,97,95,91,30.42,30.09,12,0,12,0.10
2013-11-13,56.9,50.4,48.0,52.3,48.1,46.7,96,92,76,30.45,30.26,9,1,10,0.01
2013-11-14,51.2,47.7,45.2,46.9,44.9,43.4,94,90,76,30.26,30.09,7,0,7,0.03
2013-11-15,48.4,45.8,44.0,45.2,43.1,41.6,96,90,81,30.10,29.66,23,1,23,0.10
2013-11-16,49.3,46.1,44.3,45.6,43.8,42.4,95,92,82,29.91,29.61,20,1,20,0.21
2013-11-17,54.2,48.4,44.4,46.6,44.3,42.3,95,86,69,30.05,29.91,13,2,15,0.08
2013-11-18,55.2,49.7,43.2,49.5,45.6,40.7,94,86,74,30.01,29.78,16,2,18,0.25
2013-11-19,57.0,49.9,40.9,53.8,47.7,34.9,96,92,80,29.98,29.75,14,1,14,0.13
2013-11-20,44.5,37.0,30.9,38.4,33.3,29.4,99,87,76,30.34,29.98,7,0,7,0.00
2013-11-21,45.4,31.9,25.3,31.3,27.2,23.8,95,84,47,30.56,30.33,8,1,8,0.01
2013-11-22,45.9,31.1,22.1,30.2,25.7,20.0,94,82,51,30.56,30.38,8,1,8,0.00
2013-11-23,49.6,32.8,22.3,33.7,27.2,20.3,94,82,50,30.37,30.16,5,0,8,0.00
2013-11-24,53.6,34.9,25.3,37.0,29.8,23.8,100,84,51,30.29,30.16,6,0,6,0.01
2013-11-25,52.3,35.9,26.6,39.2,31.5,24.8,95,85,58,30.34,30.28,7,0,8,0.00
2013-11-26,49.1,36.8,28.1,40.9,33.4,26.6,95,88,71,30.29,30.06,8,0,8,0.01
2013-11-27,52.2,38.3,31.4,42.2,34.8,29.9,100,88,66,30.06,29.94,6,0,6,0.00
2013-11-28,52.6,37.3,30.3,41.7,33.5,28.6,100,87,63,30.22,30.02,7,0,7,0.00
2013-11-29,50.9,39.0,27.8,42.5,35.6,26.3,96,88,73,30.37,30.21,6,0,6,0.01
2013-11-30,56.3,45.9,38.7,48.0,42.5,36.9,96,88,72,30.39,30.27,5,0,5,0.01
2013-12-1,55.9,53.0,48.5,52.7,49.9,44.9,94,89,82,30.28,30.00,26,4,27,0.64
2013-12-2,52.2,43.2,34.7,50.8,40.8,32.2,95,91,77,30.06,29.93,17,1,17,0.85
2013-12-3,41.4,34.3,26.1,37.6,32.0,23.0,96,92,82,30.25,30.05,10,0,10,0.02
2013-12-4,36.9,27.4,19.7,27.8,21.6,17.3,93,80,48,30.31,30.24,11,1,11,0.01
2013-12-5,32.7,26.1,16.1,24.4,21.3,13.9,93,82,66,30.29,30.15,6,0,6,0.00
2013-12-6,28.1,26.4,22.4,26.0,23.7,20.2,93,90,79,30.16,29.90,8,0,8,0.00
2013-12-7,30.4,20.6,9.4,20.9,14.5,6.3,90,78,50,30.43,30.01,13,1,13,0.12
2013-12-8,28.6,14.5,5.6,20.1,10.1,2.6,91,83,63,30.62,30.43,10,1,10,0.01
2013-12-9,39.2,20.8,9.3,24.5,15.7,6.5,91,82,46,30.64,30.55,6,0,6,0.01
2013-12-10,36.6,28.8,22.3,30.5,25.1,20.1,93,86,77,30.57,30.41,5,0,5,0.00
2013-12-11,41.7,28.4,20.2,33.2,25.2,18.0,94,88,70,30.41,30.22,7,0,7,0.00
2013-12-12,42.6,34.7,21.8,40.2,32.1,19.8,100,90,78,30.26,30.14,8,1,8,0.15
2013-12-13,51.5,42.7,35.1,46.5,40.5,32.8,100,92,82,30.43,30.25,11,2,11,0.01
2013-12-14,50.1,37.3,30.3,44.8,35.3,28.8,96,92,81,30.47,30.38,7,0,7,0.01
2013-12-15,52.6,42.2,35.2,45.8,39.1,33.9,96,89,73,30.48,30.42,7,0,7,0.00
2013-12-16,41.4,38.2,34.1,40.1,36.9,32.3,96,95,93,30.47,30.25,7,0,7,0.02
2013-12-17,43.2,35.6,32.0,40.9,34.3,30.8,100,95,86,30.25,30.17,9,1,10,0.00
2013-12-18,40.9,37.2,33.3,40.0,36.2,32.0,100,96,92,30.19,30.04,20,1,20,0.06
2013-12-19,35.5,32.1,29.6,33.2,30.2,28.3,96,93,90,30.31,30.12,7,0,7,0.00
2013-12-20,40.1,35.9,31.4,39.1,34.4,29.6,96,94,90,30.25,29.97,9,1,9,0.42
2013-12-21,51.2,45.1,40.1,49.3,43.9,39.1,100,96,92,30.26,30.01,5,0,5,0.12
2013-12-22,51.9,47.3,44.1,49.9,45.9,42.4,97,95,91,30.37,30.26,7,0,7,0.10
2013-12-23,49.7,46.4,38.2,48.6,44.7,36.3,96,94,91,30.53,30.35,8,0,8,0.08
2013-12-24,43.6,35.7,30.4,41.7,34.5,29.1,97,95,91,30.59,30.47,9,0,9,0.00
2013-12-25,37.5,35.1,33.2,35.9,33.9,32.1,100,95,93,30.48,30.38,6,0,6,0.00
2013-12-26,36.1,34.5,33.0,35.3,33.6,32.0,100,96,96,30.40,30.22,5,0,5,0.01
2013-12-27,42.2,35.3,31.8,40.6,34.2,30.8,100,96,91,30.39,30.20,6,1,7,0.01
2013-12-28,36.9,35.5,34.3,35.9,34.5,33.3,97,96,96,30.51,30.39,8,0,8,0.00
2013-12-29,39.7,36.2,32.3,36.9,34.5,31.0,100,93,88,30.47,30.29,6,0,6,0.00
2013-12-30,45.5,38.9,35.2,42.2,37.1,33.8,96,93,87,30.29,30.20,5,0,6,0.00
2013-12-31,51.5,41.9,33.7,43.8,38.0,31.4,95,86,69,30.35,30.24,8,0,8,0.00
2014-1-1,40.4,34.7,28.8,38.5,33.0,27.1,96,94,91,30.36,30.26,7,0,7,0.01
2014-1-2,53.7,41.5,32.5,45.6,38.2,31.3,96,89,71,30.29,30.08,7,0,7,0.00